Location: Ellerstadt
(49.4644°N, 8.2615°E)
Time: 16:38:09
(UTC+00:00)

IRIDIUM 100 - Visible Passes

Search period start: 25 September 2021 00:00
Search period end: 05 October 2021 00:00
Orbit: 776 x 779 km, 86.4° (Epoch: 24 September)

Date Brightness Start Highest point End Pass type
(mag) Time Alt. Az. Time Alt. Az. Time Alt. Az.
25 Sep ? 00:48:02 25° NNE 00:48:02 25° NNE 00:50:17 10° NNE visible
25 Sep ? 02:28:31 18° NW 02:28:31 18° NW 02:30:29 10° NNW visible
26 Sep ? 00:14:47 18° NNE 00:14:47 18° NNE 00:16:25 10° NNE visible
26 Sep ? 01:55:17 22° NNW 01:55:17 22° NNW 01:57:23 10° N visible
26 Sep ? 23:41:33 12° NE 23:41:33 12° NE 23:42:13 10° NNE visible
27 Sep ? 01:22:02 23° N 01:22:02 23° N 01:24:02 10° N visible
28 Sep ? 00:48:47 21° N 00:48:47 21° N 00:50:30 10° N visible
28 Sep ? 02:29:15 13° NW 02:29:15 13° NW 02:30:08 10° NNW visible
29 Sep ? 00:15:31 17° NNE 00:15:31 17° NNE 00:16:46 10° NNE visible
29 Sep ? 01:55:59 16° NNW 01:55:59 16° NNW 01:57:17 10° NNW visible
29 Sep ? 23:42:15 12° NNE 23:42:15 12° NNE 23:42:48 10° NNE visible
30 Sep ? 01:22:44 18° NNW 01:22:44 18° NNW 01:24:04 10° N visible
01 Oct ? 00:49:27 17° N 00:49:27 17° N 00:50:38 10° N visible
02 Oct ? 00:16:10 15° NNE 00:16:10 15° NNE 00:17:01 10° N visible
02 Oct ? 01:56:39 12° NNW 01:56:39 12° NNW 01:57:02 10° NNW visible
02 Oct ? 23:42:53 12° NNE 23:42:53 12° NNE 23:43:12 10° NNE visible
03 Oct ? 01:23:21 13° NNW 01:23:21 13° NNW 01:24:00 10° N visible
04 Oct ? 00:50:04 14° N 00:50:04 14° N 00:50:42 10° N visible
